Date String (YYYY-MM-DD hh:mm:ss) UTC,Instrument flags,Ambient pressure (hPa),Sample flow (lpm),Bypass flow (lpm),Sample temperature (°C),Ambient temperature (°C),ASC tube jacket temperature (°C),LED temperature (°C),Box temperature (°C),Sample RH (%),Span deviation,Mass concentration (μg/m³),Mass concentration (μg/m³),Mass concentration (μg/m³)
DateTimeUTC,F1_M11,P_M11,Q1_M11,Q2_M11,T1_M11,T2_M11,T3_M11,T4_M11,T5_M11,U1_M11,ZSPAN_M11,X0_M11,X2_M11,X1_M11
2022-06-28 13:00:00,,0832.4,5.01,0.00,30.2,29.2,00.0,39.0,32.0,18.6,0000.0,0007.38,0003.47,0002.98
2022-06-28 13:01:00,,0832.4,5.00,0.00,30.2,29.2,00.0,39.0,32.1,18.3,0000.0,0007.80,0003.48,0003.02
2022-06-28 13:02:00,,0832.4,4.99,0.00,30.2,29.2,00.0,39.0,32.1,18.3,0000.0,0007.74,0003.52,0003.07
2022-06-28 13:03:00,,0832.4,5.00,0.00,30.3,29.3,00.0,39.1,32.1,18.2,0000.0,0007.47,0003.53,0003.11
2022-06-28 13:04:00,,0832.4,5.00,0.00,30.3,29.3,00.0,39.1,32.1,17.8,0000.0,0008.20,0003.54,0003.13
2022-06-28 13:05:00,,0832.4,4.98,0.00,30.3,29.3,00.0,39.1,32.1,17.9,0000.0,0008.43,0003.57,0003.15
2022-06-28 13:06:00,,0832.4,5.00,0.00,30.3,29.3,00.0,39.1,32.1,17.9,0000.0,0008.38,0003.55,0003.17
2022-06-28 13:07:00,,0832.5,5.01,0.00,30.3,29.3,00.0,39.1,32.1,17.9,0000.0,0008.45,0003.61,0003.19
2022-06-28 13:08:00,,0832.5,5.00,0.00,30.3,29.3,00.0,39.1,32.2,17.9,0000.0,0008.67,0003.64,0003.21
2022-06-28 13:09:00,,0832.5,5.00,0.00,30.3,29.3,00.0,39.1,32.2,17.9,0000.0,0008.52,0003.65,0003.21
2022-06-28 13:10:00,,0832.5,4.99,0.00,30.3,29.4,00.0,39.1,32.2,18.3,0000.0,0008.39,0003.64,0003.21
2022-06-28 13:11:00,,0832.5,5.01,0.00,30.4,29.4,00.0,39.1,32.2,18.4,0000.0,0008.49,0003.67,0003.22
2022-06-28 13:12:00,,0832.5,5.00,0.00,30.4,29.4,00.0,39.2,32.2,18.2,0000.0,0008.08,0003.67,0003.22
2022-06-28 13:13:00,,0832.5,5.00,0.00,30.4,29.3,00.0,39.2,32.2,18.4,0000.0,0008.11,0003.69,0003.23
2022-06-28 13:14:00,,0832.5,5.01,0.00,30.3,28.6,00.0,39.1,32.0,18.2,0000.0,0008.23,0003.68,0003.23
2022-06-28 13:15:00,,0832.5,4.99,0.00,30.3,28.0,00.0,39.0,31.9,18.2,0000.0,0007.56,0003.69,0003.23
2022-06-28 13:16:00,,0832.5,5.00,0.00,30.2,27.8,00.0,39.0,31.8,18.5,0000.0,0007.45,0003.68,0003.23
2022-06-28 13:17:00,,0832.5,5.00,0.00,30.1,27.8,00.0,39.0,31.7,18.3,0000.0,0008.07,0003.71,0003.24
2022-06-28 13:18:00,,0832.5,5.00,0.00,30.1,27.9,00.0,39.0,31.7,18.5,0000.0,0009.05,0003.71,0003.23
2022-06-28 13:19:00,,0832.5,4.99,0.00,30.0,28.0,00.0,38.9,31.7,18.2,0000.0,0008.88,0003.70,0003.23
2022-06-28 13:20:00,,0832.6,5.00,0.00,30.0,28.2,00.0,38.9,31.7,18.4,0000.0,0008.90,0003.71,0003.23
2022-06-28 13:21:00,,0832.6,5.00,0.00,30.0,28.3,00.0,38.9,31.7,18.6,0000.0,0008.86,0003.68,0003.23
2022-06-28 13:22:00,,0832.6,4.99,0.00,30.0,28.4,00.0,38.9,31.8,18.9,0000.0,0008.78,0003.68,0003.22
2022-06-28 13:23:00,,0832.6,5.01,0.00,30.0,28.5,00.0,38.9,31.7,18.8,0000.0,0008.89,0003.70,0003.22
2022-06-28 13:24:00,,0832.6,5.00,0.00,30.0,28.6,00.0,38.9,31.8,18.5,0000.0,0009.38,0003.67,0003.21
2022-06-28 13:25:00,,0832.6,4.99,0.00,30.0,28.7,00.0,38.9,31.8,18.6,0000.0,0009.53,0003.66,0003.22
2022-06-28 13:26:00,,0832.6,5.00,0.00,30.0,28.7,00.0,38.9,31.8,18.5,0000.0,0009.66,0003.65,0003.22
2022-06-28 13:27:00,,0832.7,5.00,0.00,30.0,28.8,00.0,38.9,31.9,18.3,0000.0,0010.21,0003.64,0003.22
2022-06-28 13:28:00,,0832.7,5.00,0.00,30.0,28.9,00.0,38.9,31.9,18.7,0000.0,0010.26,0003.67,0003.24
2022-06-28 13:29:00,,0832.7,5.00,0.00,30.0,28.9,00.0,38.9,31.9,18.6,0000.0,0008.99,0003.67,0003.25
2022-06-28 13:30:00,,0832.7,5.00,0.00,30.1,28.9,00.0,38.9,31.9,18.6,0000.0,0008.96,0003.67,0003.27
2022-06-28 13:31:00,,0832.7,5.00,0.00,30.1,29.0,00.0,38.9,31.9,18.5,0000.0,0008.71,0003.64,0003.28
2022-06-28 13:32:00,,0832.7,4.99,0.00,30.1,29.0,00.0,38.9,32.0,18.9,0000.0,0008.81,0003.71,0003.30
2022-06-28 13:33:00,,0832.7,5.01,0.00,30.1,29.1,00.0,38.9,32.0,19.1,0000.0,0009.20,0003.78,0003.32
2022-06-28 13:34:00,,0832.7,5.00,0.00,30.1,29.1,00.0,38.9,32.0,18.5,0000.0,0010.87,0003.84,0003.35
2022-06-28 13:35:00,,0832.7,5.01,0.00,30.1,29.1,00.0,38.9,32.0,18.5,0000.0,0010.92,0003.91,0003.38
2022-06-28 13:36:00,,0832.7,4.99,0.00,30.1,29.2,00.0,38.9,32.0,18.0,0000.0,0010.89,0004.00,0003.41
2022-06-28 13:37:00,,0832.8,5.00,0.00,30.2,29.2,00.0,38.9,32.0,18.1,0000.0,0011.07,0004.04,0003.43
2022-06-28 13:38:00,,0832.8,5.00,0.00,30.2,29.2,00.0,39.0,32.0,17.7,0000.0,0011.22,0004.08,0003.46
2022-06-28 13:39:00,,0832.7,4.98,0.00,30.2,29.2,00.0,39.0,32.1,17.6,0000.0,0011.81,0004.13,0003.48
2022-06-28 13:40:00,,0832.8,5.02,0.00,30.2,28.6,00.0,38.9,32.0,17.4,0000.0,0012.20,0004.17,0003.49
2022-06-28 13:41:00,,0832.8,4.99,0.00,30.1,27.9,00.0,38.9,31.7,17.8,0000.0,0012.63,0004.21,0003.49
2022-06-28 13:42:00,,0832.7,5.00,0.00,30.0,27.7,00.0,38.8,31.6,17.8,0000.0,0012.72,0004.24,0003.49
2022-06-28 13:43:00,,0832.7,5.00,0.00,30.0,27.7,00.0,38.8,31.6,17.3,0000.0,0012.74,0004.22,0003.48
2022-06-28 13:44:00,,0832.7,5.01,0.00,29.9,27.8,00.0,38.8,31.6,17.5,0000.0,0013.42,0004.15,0003.47
2022-06-28 13:45:00,,0832.7,4.99,0.00,29.9,27.9,00.0,38.8,31.6,17.7,0000.0,0012.13,0004.11,0003.45
2022-06-28 13:46:00,,0832.7,4.99,0.00,29.9,28.1,00.0,38.8,31.6,18.1,0000.0,0012.94,0004.15,0003.44
2022-06-28 13:47:00,,0832.7,5.00,0.00,29.9,28.2,00.0,38.8,31.6,18.1,0000.0,0013.64,0004.15,0003.42
2022-06-28 13:48:00,,0832.7,4.99,0.00,29.9,28.3,00.0,38.7,31.7,18.7,0000.0,0013.49,0004.13,0003.41
2022-06-28 13:49:00,,0832.8,5.00,0.00,29.9,28.4,00.0,38.7,31.7,18.6,0000.0,0013.14,0004.12,0003.38
2022-06-28 13:50:00,,0832.8,5.00,0.00,29.9,28.5,00.0,38.7,31.7,18.1,0000.0,0012.87,0004.08,0003.38
2022-06-28 13:51:00,,0832.8,4.99,0.00,29.9,28.6,00.0,38.7,31.7,18.4,0000.0,0012.76,0004.07,0003.37
2022-06-28 13:52:00,,0832.9,5.00,0.00,29.9,28.7,00.0,38.7,31.7,18.5,0000.0,0012.64,0004.10,0003.37
2022-06-28 13:53:00,,0832.8,5.01,0.00,29.9,28.7,00.0,38.7,31.8,18.6,0000.0,0013.04,0004.15,0003.39
2022-06-28 13:54:00,,0832.7,4.99,0.00,29.9,28.8,00.0,38.7,31.8,18.4,0000.0,0013.62,0004.19,0003.42
2022-06-28 13:55:00,,0832.8,5.00,0.00,29.9,28.8,00.0,38.7,31.8,18.5,0000.0,0013.78,0004.25,0003.44
2022-06-28 13:56:00,,0832.8,5.01,0.00,30.0,28.9,00.0,38.8,31.8,18.5,0000.0,0013.83,0004.27,0003.46
2022-06-28 13:57:00,,0832.9,4.98,0.00,30.0,28.9,00.0,38.8,31.9,18.5,0000.0,0012.23,0004.21,0003.46
2022-06-28 13:58:00,,0832.8,5.00,0.00,30.0,29.0,00.0,38.8,31.9,18.6,0000.0,0012.08,0004.19,0003.49
2022-06-28 13:59:00,,0832.8,5.00,0.00,30.0,29.0,00.0,38.8,31.9,18.9,0000.0,0013.10,0004.21,0003.50
